Temperature
19 18 18 18 18 18 18 18 18 18 17 17 17 17 16 16 16 15 15 15 14 14 14 14 13 13 13 13 13 13 14 14 14 15 15 15 15 15 15 15 15 15 15
19 18 18 17 17 18 18 18 18 17 17 17 17 17 16 16 16 15 15 15 14 14 14 14 14 13 13 13 13 13 14 14 14 15 16 17 16 14 15 15 15 15 15
19 18 18 17 17 17 18 18 17 17 17 17 17 16 16 16 15 15 15 15 14 14 14 13 13 13 13 13 13 12 13 14 14 14 15 17 18 16 15 14 14 14 15
19 18 18 17 17 17 17 18 18 18 18 17 17 16 16 16 16 15 15 15 14 14 14 13 13 13 13 13 13 13 13 13 14 14 13 14 14 15 16 15 15 14 14
19 19 18 18 18 17 17 17 18 18 18 17 17 16 16 16 16 15 15 15 14 14 14 13 13 13 13 13 12 12 12 13 13 14 14 14 14 14 15 16 15 15 15
20 19 18 18 18 17 17 17 18 18 18 17 17 17 16 16 16 16 15 15 14 14 14 13 13 13 13 12 12 12 12 12 12 13 13 14 14 15 15 15 15 15 15
20 19 18 18 18 18 18 17 18 18 18 17 17 17 17 16 16 16 15 15 15 14 14 13 13 13 12 12 12 12 12 12 12 12 12 13 13 13 14 14 15 15 15
21 20 19 19 18 18 18 18 18 18 18 18 17 17 17 16 16 16 16 15 15 15 14 13 13 13 13 12 12 12 12 12 12 12 12 12 13 13 13 13 14 15 15
22 21 20 19 19 18 18 18 18 18 18 18 18 17 17 17 16 16 16 15 15 14 14 14 13 13 13 12 12 12 12 12 12 12 12 12 13 12 12 12 13 13 15
22 22 21 20 19 19 19 18 18 18 18 18 18 18 18 17 17 16 16 15 15 15 14 14 13 13 13 13 12 12 12 12 12 12 11 12 12 12 12 12 12 12 13
23 22 22 21 20 20 19 19 19 19 19 18 18 18 18 18 17 17 16 16 15 15 15 14 14 13 13 13 13 12 12 12 12 12 12 12 11 12 12 12 12 12 12
24 23 22 22 21 21 20 19 19 19 19 19 19 19 18 18 18 17 17 16 16 15 15 14 14 14 13 13 13 12 12 12 12 12 12 12 12 11 12 12 12 12 12
24 23 23 22 22 21 21 20 20 19 19 19 19 19 19 18 18 17 17 17 16 16 15 15 15 14 14 14 13 13 13 13 12 12 12 12 12 11 12 11 12 12 12
23 23 23 22 22 21 21 20 20 20 19 19 20 19 19 19 18 18 17 17 16 16 16 16 15 15 14 14 14 14 13 13 13 13 12 12 12 12 11 11 11 11 11
23 22 22 22 21 21 20 20 20 20 20 20 20 19 19 19 18 18 17 17 17 16 16 16 15 15 15 14 14 14 14 13 13 13 13 13 13 12 12 12 12 11 11
22 22 21 21 21 20 20 20 20 20 20 20 20 19 19 19 19 18 18 17 17 17 16 16 16 15 15 15 15 15 14 13 13 13 13 13 13 13 13 13 12 12 11
20 20 20 20 20 20 20 20 19 19 19 19 19 19 19 19 19 18 18 17 17 17 17 16 16 16 16 16 16 15 15 14 13 13 13 13 13 13 12 12 12 12 12
19 19 19 19 19 19 19 19 19 18 18 18 18 18 19 18 18 18 17 17 17 17 16 16 16 16 16 16 16 15 15 14 14 14 13 13 13 13 12 12 11 11 11
17 17 18 18 18 18 18 18 18 17 17 17 17 17 17 17 17 17 17 17 17 16 16 16 16 16 16 16 16 15 14 14 14 14 13 13 13 13 13 12 12 11 11
16 16 16 17 17 17 17 17 17 17 16 16 16 16 16 16 16 16 16 16 16 16 16 15 15 15 15 15 15 15 14 13 13 13 13 13 13 13 13 12 12 11 11
15 15 16 16 16 16 16 16 16 16 15 15 15 15 15 15 15 15 15 15 15 15 15 14 14 14 14 14 14 14 14 13 13 13 13 13 13 13 13 12 12 12 11
14 15 15 15 15 15 15 15 15 14 14 15 15 15 15 14 14 15 15 14 14 14 13 13 13 13 13 13 13 13 13 13 12 12 12 13 13 12 12 12 12 12 11
14 14 14 14 14 14 14 14 13 13 13 13 13 13 13 13 13 13 13 13 13 13 13 13 13 13 12 12 12 12 12 12 12 11 11 12 12 12 11 11 11 11 11
13 13 13 13 12 13 13 12 12 12 12 12 12 12 12 12 12 12 12 12 12 12 12 12 12 12 12 11 11 11 11 11 11 11 11 11 11 11 11 11 11 11 10
13 12 12 12 11 11 11 11 11 11 11 11 11 11 12 11 11 11 11 11 11 10 10 10 10 10 10 10 10 10 10 10 10 9 9 10 10 10 11 10 10 10 10
12 12 12 11 11 11 11 11 11 11 11 11 11 11 11 11 11 11 11 11 10 10 10 10 10 9 9 9 9 9 9 9 9 9 9 9 10 10 11 11 10 10 10
Wind_Speed
11 11 11 11 11 11 11 11 11 10 9 8 8 8 7 6 6 5 6 5 3 3 1 3 3 2 3 4 3 3 1 2 3 3 2 2 1 1 0 2 2 1 2
12 11 12 12 13 13 12 11 11 11 11 9 7 6 6 6 5 5 6 5 4 3 3 2 1 2 2 3 3 3 3 2 3 4 3 3 4 2 1 1 1 2 1
14 14 14 14 13 13 13 11 12 12 11 10 8 7 6 5 6 6 6 6 6 4 2 2 1 1 1 3 3 3 3 3 2 3 4 3 1 1 3 1 2 2 2
13 14 14 15 14 14 13 12 12 11 11 10 10 10 8 6 6 6 5 7 7 6 5 4 2 1 1 1 1 3 2 3 2 1 2 3 4 4 1 3 2 1 2
13 14 15 15 15 14 13 12 12 11 11 11 10 9 8 6 5 5 6 6 7 7 6 5 4 3 1 1 1 1 2 2 3 2 1 1 1 4 5 2 2 2 1
13 14 14 14 14 14 13 12 12 11 12 12 11 11 9 7 6 7 6 7 6 6 7 7 5 5 3 2 2 1 1 2 2 3 3 3 3 3 4 5 5 4 2
14 15 16 16 15 15 15 14 14 13 13 13 12 12 10 9 9 8 7 7 6 6 7 7 6 5 4 4 3 3 2 2 2 3 3 3 3 4 4 5 5 5 4
15 16 17 17 16 17 16 16 16 15 15 14 13 12 11 9 8 8 6 7 5 5 6 7 7 6 6 6 5 4 4 3 4 4 3 4 4 4 4 5 6 7 5
16 16 17 17 17 17 17 17 16 15 15 15 13 12 12 10 8 8 8 7 6 6 8 8 7 7 7 6 6 5 4 4 5 5 5 5 4 5 5 5 5 6 7
16 16 16 17 17 17 16 17 17 16 16 15 14 12 12 11 10 9 9 7 7 7 8 9 8 8 8 7 7 6 5 5 6 5 5 6 6 4 5 6 6 6 7
16 16 16 16 17 17 17 17 17 16 15 15 14 13 12 12 11 10 10 9 9 9 9 9 9 9 9 8 8 8 6 7 7 7 7 7 7 6 6 6 6 7 7
14 15 16 16 16 17 17 17 16 17 16 15 14 14 13 12 12 12 11 10 10 10 10 10 10 10 9 9 9 9 8 8 8 8 8 8 7 8 8 7 8 8 8
13 14 15 15 16 16 16 17 17 17 16 15 15 14 14 14 13 12 12 11 11 11 11 11 11 11 10 10 10 10 9 9 9 9 9 9 9 9 9 8 9 8 8
12 13 13 14 14 15 15 15 16 16 15 15 15 15 15 14 13 13 12 12 12 12 12 12 12 11 11 11 11 10 10 10 10 10 10 10 11 11 10 9 10 10 10
9 11 12 12 13 13 14 14 14 14 14 15 15 14 13 13 12 12 12 12 12 13 12 12 12 12 11 11 12 11 11 11 11 11 12 12 11 10 10 10 9 9 10
4 6 8 9 10 11 12 13 13 13 13 14 14 12 12 12 13 12 12 12 12 12 12 13 13 13 12 10 11 12 12 12 12 12 12 12 13 14 15 14 13 12 12
1 1 2 4 5 7 8 9 10 10 11 11 11 11 11 12 12 12 12 13 13 13 13 13 14 14 14 12 14 15 14 14 13 13 13 12 12 13 14 16 19 18 19
5 4 3 2 1 3 4 4 6 7 7 8 9 9 9 10 10 11 12 12 11 12 12 13 14 14 14 14 16 15 15 16 16 15 15 15 15 14 15 15 15 15 16
8 7 7 6 5 4 4 5 5 4 4 5 5 6 7 7 8 10 10 10 10 11 12 12 13 14 14 13 16 15 13 14 17 17 17 17 17 16 14 16 17 17 16
10 10 9 10 10 8 7 6 6 5 2 1 1 2 3 4 5 6 7 7 8 10 11 12 12 13 14 12 14 14 12 14 15 15 16 18 20 17 16 17 17 18 17
11 11 11 11 10 9 9 10 9 7 5 4 3 2 1 2 3 3 4 5 7 8 10 11 11 12 12 11 12 15 12 14 15 14 14 14 17 20 19 18 18 18 16
11 11 11 11 10 9 10 11 10 7 6 6 6 5 3 2 1 0 2 3 5 6 8 9 10 9 9 9 9 13 15 15 14 14 14 13 8 14 17 17 18 18 14
11 10 11 12 11 11 11 11 8 6 6 7 7 6 4 3 3 2 2 2 3 5 6 7 8 8 8 7 9 11 14 16 14 14 16 15 12 11 13 19 19 16 15
10 10 11 11 11 11 11 9 8 7 7 8 7 5 4 4 4 4 3 4 4 5 6 7 8 8 8 7 6 6 7 10 13 13 14 15 17 16 16 15 15 15 16
9 9 9 10 10 9 9 9 9 8 8 7 6 5 5 5 4 4 4 5 5 5 6 8 8 9 10 8 9 9 10 10 10 11 12 13 14 14 14 15 15 15 15
8 8 9 8 8 8 8 8 8 7 7 6 7 6 6 6 6 6 5 2 5 5 8 9 9 9 9 10 12 12 13 14 12 10 14 15 15 16 16 15 15 14 14
Wind_Direction
191 184 183 180 176 172 168 163 161 158 164 165 165 164 166 169 168 164 151 158 142 126 67 66 86 20 50 25 11 345 346 344 329 275 229 190 185 64 1 330 314 295 264
187 184 183 179 180 175 172 168 166 169 177 169 165 168 165 178 173 170 160 174 166 161 147 79 90 67 69 53 23 3 337 7 0 317 280 217 177 178 64 34 44 9 342
190 185 185 182 177 176 177 176 173 175 179 167 167 162 164 182 178 184 181 184 181 179 156 153 62 68 342 54 22 359 1 355 30 5 324 303 308 170 151 81 64 42 18
194 187 186 184 180 179 179 178 176 178 177 178 183 184 192 195 192 195 181 180 189 190 184 182 172 214 23 72 334 48 345 326 351 73 16 354 349 306 226 184 144 76 26
190 187 187 185 181 178 178 177 179 180 181 190 187 198 207 201 190 192 178 194 190 197 197 194 193 200 217 95 25 34 338 334 335 340 334 324 267 274 292 284 283 252 269
186 185 185 182 181 179 178 180 182 186 187 193 195 206 206 201 195 197 190 201 195 198 196 200 202 210 210 188 211 251 234 336 342 319 315 303 301 300 295 288 274 281 273
184 184 185 183 184 183 183 185 187 192 192 196 201 204 203 200 199 205 202 212 202 198 191 199 201 210 205 210 217 226 274 255 269 278 294 305 303 307 299 296 298 294 277
185 186 186 185 185 185 187 189 191 194 194 198 202 203 202 207 205 205 212 207 216 207 183 195 203 209 209 214 214 234 226 236 253 263 283 282 278 288 286 293 301 294 283
184 184 185 185 186 189 192 194 194 197 199 200 200 202 203 210 204 193 207 210 208 201 192 201 204 207 211 220 225 239 238 235 247 247 232 255 269 264 275 279 285 294 297
184 185 186 187 188 190 192 196 198 200 201 201 202 201 201 201 198 203 205 207 204 204 200 203 207 210 211 215 227 234 222 236 243 257 272 267 268 264 263 267 271 274 283
185 185 187 189 190 191 192 196 199 201 202 204 203 203 200 198 196 199 200 200 203 200 204 207 210 213 215 216 221 240 232 236 243 244 244 246 265 267 267 260 263 265 268
187 187 188 190 193 195 196 198 201 202 204 202 200 201 199 198 198 199 200 200 202 205 205 209 213 217 218 218 223 232 234 236 242 244 246 248 244 244 260 265 264 265 267
194 193 192 194 198 200 202 203 204 205 203 200 200 200 200 200 203 202 200 202 204 208 210 211 216 220 222 222 226 231 237 240 243 245 245 246 246 246 251 255 262 264 259
200 203 201 203 205 206 206 208 209 207 204 200 200 201 202 202 203 202 202 204 207 210 212 215 219 222 225 226 228 230 235 240 244 245 245 245 242 242 246 249 252 259 267
199 207 211 209 211 211 210 210 210 207 204 202 203 204 204 203 203 202 204 206 209 213 215 219 222 225 228 228 226 231 235 238 243 243 242 243 241 246 247 256 257 256 258
196 204 211 213 211 212 212 210 210 205 202 205 206 202 202 202 203 203 204 206 211 216 218 222 226 228 232 211 209 232 245 243 243 246 245 244 231 230 228 242 253 260 259
60 149 207 217 211 207 203 203 205 200 199 205 206 200 201 202 204 205 205 208 212 215 220 226 230 234 235 210 206 217 241 249 248 248 247 249 244 225 235 228 227 238 243
51 45 49 85 140 166 174 181 182 186 195 201 203 200 201 204 206 208 212 214 216 220 224 228 232 237 236 211 211 213 233 249 250 248 247 247 251 243 238 243 241 240 236
60 58 54 65 69 82 106 129 140 153 178 193 201 201 203 209 211 214 217 220 223 228 232 234 236 239 240 215 210 211 240 245 248 249 248 246 247 240 225 241 249 251 250
64 63 66 70 67 63 75 92 95 98 105 123 170 200 210 221 227 231 233 232 233 239 244 245 243 245 248 229 210 208 241 250 253 250 249 243 241 244 214 233 244 249 250
68 67 66 64 63 66 73 73 68 60 54 60 66 61 22 246 246 253 251 251 250 253 254 256 251 249 251 245 218 211 238 254 259 259 255 253 221 222 220 225 241 249 253
74 72 70 65 57 60 71 72 62 53 53 60 64 60 46 11 21 318 273 262 261 259 259 261 264 261 256 251 240 219 227 251 263 265 266 267 246 219 221 224 238 244 248
79 76 77 73 64 60 64 69 60 51 58 61 59 50 43 37 19 351 307 281 276 281 280 276 277 278 277 264 236 235 235 239 249 263 271 282 280 257 242 232 230 233 239
82 80 77 75 69 64 64 64 62 58 56 57 54 45 34 29 23 348 336 325 314 305 300 295 291 292 289 287 293 284 267 250 251 263 268 259 252 249 254 255 235 233 238
87 83 80 78 74 69 64 59 54 51 51 48 40 31 28 22 357 350 338 328 327 332 308 306 304 301 297 320 345 316 299 297 301 302 281 274 267 260 253 249 246 241 236
93 87 81 75 70 67 63 58 51 43 34 32 22 10 2 1 343 333 326 271 267 257 249 255 274 294 296 308 305 298 288 282 282 281 274 271 268 266 265 261 254 247 244
Height
1524 1527 1529 1533 1536 1539 1542 1546 1549 1552 1555 1558 1561 1563 1566 1568 1569 1570 1570 1570 1570 1570 1570 1571 1569 1570 1570 1569 1569 1568 1569 1568 1567 1568 1568 1568 1568 1568 1567 1567 1568 1567 1567
1522 1524 1527 1530 1534 1536 1540 1544 1547 1551 1555 1557 1560 1562 1565 1567 1569 1569 1569 1569 1570 1570 1571 1570 1571 1570 1569 1568 1568 1567 1568 1568 1567 1568 1568 1567 1568 1567 1567 1567 1566 1566 1566
1518 1521 1524 1527 1531 1534 1538 1542 1545 1549 1553 1556 1559 1562 1563 1566 1567 1568 1568 1569 1569 1569 1569 1569 1570 1569 1570 1570 1568 1567 1568 1568 1568 1567 1568 1567 1565 1567 1567 1566 1566 1565 1565
1514 1517 1521 1524 1528 1532 1536 1540 1544 1547 1550 1554 1558 1560 1563 1565 1566 1567 1568 1567 1568 1568 1569 1569 1569 1569 1570 1568 1569 1568 1568 1567 1568 1568 1567 1567 1567 1567 1566 1566 1566 1565 1565
1511 1514 1518 1522 1526 1530 1534 1538 1542 1545 1549 1552 1556 1559 1562 1563 1565 1565 1565 1566 1567 1567 1567 1568 1568 1568 1568 1568 1567 1567 1567 1568 1568 1568 1568 1567 1567 1567 1566 1565 1566 1565 1565
1509 1513 1517 1520 1524 1528 1532 1536 1539 1543 1547 1550 1554 1556 1559 1561 1562 1563 1564 1564 1566 1566 1566 1566 1566 1567 1568 1567 1566 1566 1566 1566 1565 1566 1567 1567 1567 1566 1566 1565 1564 1564 1564
1507 1511 1515 1518 1522 1525 1530 1534 1537 1541 1544 1548 1551 1554 1556 1557 1559 1560 1562 1563 1564 1564 1564 1565 1565 1566 1566 1565 1565 1565 1566 1565 1565 1565 1565 1566 1566 1565 1565 1564 1563 1562 1562
1505 1509 1512 1516 1520 1523 1527 1531 1535 1538 1542 1545 1549 1551 1553 1555 1557 1558 1560 1561 1562 1563 1562 1562 1563 1564 1564 1564 1564 1565 1565 1564 1564 1564 1563 1563 1564 1564 1563 1563 1563 1561 1560
1503 1507 1511 1514 1518 1521 1525 1529 1532 1536 1539 1543 1545 1548 1550 1552 1554 1554 1556 1558 1558 1560 1560 1560 1561 1562 1562 1562 1562 1564 1563 1562 1562 1563 1562 1562 1563 1562 1562 1561 1561 1561 1558
1501 1505 1509 1512 1516 1519 1523 1526 1530 1533 1536 1539 1542 1545 1546 1548 1550 1552 1553 1554 1555 1556 1557 1558 1559 1559 1560 1560 1560 1561 1561 1560 1560 1560 1560 1559 1561 1560 1559 1559 1559 1558 1558
1498 1502 1506 1510 1514 1517 1521 1524 1527 1530 1533 1536 1538 1541 1543 1545 1546 1548 1549 1551 1552 1552 1554 1555 1556 1557 1557 1558 1558 1559 1559 1558 1558 1558 1558 1557 1556 1557 1557 1557 1556 1555 1555
1497 1500 1504 1508 1511 1515 1518 1521 1523 1526 1529 1532 1534 1536 1539 1541 1542 1544 1546 1547 1548 1549 1551 1552 1553 1554 1555 1555 1555 1555 1556 1556 1556 1556 1555 1555 1554 1553 1553 1553 1553 1552 1551
1495 1498 1502 1505 1508 1511 1514 1517 1520 1522 1525 1527 1529 1532 1534 1536 1538 1541 1542 1544 1545 1546 1548 1549 1550 1550 1551 1552 1552 1552 1553 1553 1553 1552 1552 1551 1551 1550 1550 1549 1549 1549 1548
1493 1496 1499 1502 1505 1507 1510 1513 1516 1518 1521 1523 1525 1527 1530 1532 1534 1536 1538 1540 1541 1542 1544 1545 1546 1547 1548 1548 1549 1549 1549 1549 1548 1548 1547 1547 1546 1546 1545 1545 1544 1544 1543
1491 1493 1496 1498 1501 1503 1506 1508 1511 1514 1516 1518 1520 1523 1525 1528 1530 1532 1534 1535 1537 1538 1540 1541 1542 1543 1543 1544 1545 1545 1545 1544 1544 1543 1542 1542 1541 1541 1540 1541 1541 1540 1539
1489 1491 1493 1495 1497 1499 1501 1504 1506 1508 1510 1513 1515 1518 1521 1523 1525 1527 1529 1531 1532 1534 1535 1536 1537 1538 1539 1539 1539 1539 1540 1539 1539 1538 1537 1537 1535 1534 1534 1534 1534 1533 1533
1488 1489 1490 1492 1493 1495 1497 1499 1501 1504 1506 1508 1511 1513 1516 1518 1520 1522 1524 1526 1527 1529 1530 1531 1532 1532 1533 1533 1534 1534 1534 1533 1533 1532 1531 1531 1531 1529 1528 1527 1526 1526 1525
1488 1489 1489 1490 1491 1493 1494 1496 1498 1501 1503 1505 1507 1509 1511 1514 1516 1518 1519 1521 1522 1523 1524 1525 1525 1526 1526 1527 1527 1527 1527 1526 1526 1525 1524 1524 1523 1523 1522 1522 1521 1519 1518
1489 1489 1489 1490 1490 1491 1493 1495 1497 1498 1500 1502 1504 1506 1508 1510 1511 1513 1514 1515 1517 1517 1518 1519 1519 1519 1519 1520 1520 1520 1519 1518 1517 1517 1517 1516 1515 1514 1514 1514 1513 1512 1511
1490 1490 1491 1490 1490 1491 1493 1494 1496 1497 1499 1500 1501 1503 1504 1506 1507 1508 1509 1510 1511 1511 1512 1513 1512 1512 1512 1512 1512 1512 1511 1511 1510 1509 1508 1507 1507 1506 1506 1505 1505 1504 1503
1492 1492 1492 1491 1492 1493 1494 1494 1495 1496 1497 1498 1498 1499 1501 1502 1502 1503 1504 1505 1505 1505 1505 1506 1505 1504 1504 1504 1504 1504 1503 1502 1502 1501 1500 1499 1498 1497 1497 1496 1496 1495 1495
1495 1495 1494 1494 1494 1494 1495 1494 1495 1496 1497 1496 1497 1497 1498 1499 1498 1498 1499 1499 1499 1499 1499 1499 1498 1498 1497 1496 1496 1495 1494 1493 1492 1491 1491 1491 1489 1488 1487 1486 1485 1486 1486
1497 1498 1497 1496 1496 1496 1495 1495 1497 1498 1498 1497 1496 1496 1497 1497 1496 1496 1496 1496 1495 1495 1495 1494 1493 1492 1491 1490 1488 1487 1486 1484 1482 1481 1480 1480 1479 1477 1476 1475 1475 1475 1475
1500 1500 1500 1500 1499 1498 1498 1498 1498 1498 1498 1496 1496 1496 1496 1496 1494 1494 1494 1493 1492 1491 1490 1489 1488 1486 1485 1484 1482 1480 1478 1476 1474 1473 1471 1469 1467 1466 1464 1464 1463 1462 1462
1503 1503 1503 1503 1502 1501 1501 1500 1499 1499 1498 1498 1497 1497 1496 1495 1493 1492 1490 1489 1488 1487 1485 1484 1482 1481 1479 1477 1474 1472 1471 1469 1467 1464 1462 1460 1458 1456 1454 1452 1452 1451 1450
1505 1505 1505 1505 1504 1503 1503 1502 1501 1500 1500 1499 1498 1497 1496 1494 1493 1491 1489 1486 1485 1482 1480 1478 1476 1474 1472 1469 1467 1465 1462 1460 1458 1455 1452 1451 1449 1446 1444 1443 1441 1440 1439